Bishop, CA

5:42 PM PDT on August 17, 2017 (GMT -0700)
Bishop

Weather History for KBIH - April, 2013

Change the Weather History Date:

Sunday, April 7, 2013

  Actual Average Record
Temperature  
Mean Temperature 61 °F 52 °F  
Max Temperature 81 °F 70 °F 93 °F (1989)
Min Temperature 41 °F 34 °F 17 °F (1982)
Degree Days  
Heating Degree Days 4 13  
Month to date heating degree days 52 93  
Since 1 July heating degree days 3625 3816  
Cooling Degree Days 0 0  
Month to date cooling degree days 0 0  
Year to date cooling degree days 0 0  
Growing Degree Days 11 (Base 50)    
Moisture  
Dew Point 9 °F    
Average Humidity 22    
Maximum Humidity 41    
Minimum Humidity 2    
Precipitation  
Precipitation 0.00 in 0.01 in 0.90 in (2017)
Month to date precipitation 0.00 0.08  
Year to date precipitation T 2.51  
Snow  
Snow 0.00 in 0.10 in 0.10 in (1999)
Month to date snowfall 0.0 0.1  
Since 1 July snowfall 2.8 8.0  
Snow Depth 0.00 in    
Sea Level Pressure  
Sea Level Pressure 29.76 in    
Wind  
Wind Speed 7 mph (NW)    
Max Wind Speed 25 mph    
Max Gust Speed 30 mph    
Visibility 10 miles    
Events      
T = Trace of Precipitation, MM = Missing Value Source: NWS Daily Summary

Daily Weather History Graph

Daily Weather History Graph

Search for Another Location

Airport or City:

Trip Planner

Search our weather history database for the weather conditions in past years. The results will help you decide how hot, cold, wet, or windy it might be!

Date:

Astronomy

Apr. 07, 2013 Rise Set
Actual Time 6:29 AM PDT 7:21 PM PDT
Civil Twilight 6:03 AM PDT 7:48 PM PDT
Nautical Twilight 5:31 AM PDT 8:19 PM PDT
Astronomical Twilight 4:59 AM PDT 8:52 PM PDT
Moon 4:46 AM PDT (4/7) 5:01 PM PDT (4/7)
Length of Visible Light 13h 45m
Length of Day
12h 52m
Waning Crescent, 7% of the Moon is Illuminated
Apr 7
Waning Crescent
Apr 10
New
Apr 18
First Quarter
Apr 25
Full
May 2
Last Quarter

Hourly Weather History & Observations

Time (PDT) Temp. Windchill Dew Point Humidity Pressure Visibility Wind Dir Wind Speed Gust Speed Precip Events Conditions
12:56 AM 57.0 °F - 25.0 °F 29% 29.90 in 10.0 mi NNW 15.0 mph - N/A   Clear
1:56 AM 54.0 °F - 24.1 °F 31% 29.91 in 10.0 mi NW 13.8 mph - N/A   Clear
2:56 AM 53.1 °F - 21.9 °F 30% 29.88 in 10.0 mi NNW 11.5 mph - N/A   Clear
3:56 AM 53.1 °F - 19.9 °F 27% 29.88 in 10.0 mi NNW 11.5 mph - N/A   Clear
4:56 AM 48.0 °F - 21.0 °F 34% 29.88 in 10.0 mi North 8.1 mph - N/A   Clear
5:56 AM 44.1 °F 41.5 °F 19.9 °F 38% 29.88 in 10.0 mi NE 4.6 mph - N/A   Clear
6:56 AM 41.0 °F 38.0 °F 19.0 °F 41% 29.90 in 10.0 mi NE 4.6 mph - N/A   Clear
7:56 AM 52.0 °F - 21.9 °F 31% 29.90 in 10.0 mi Calm Calm - N/A   Clear
8:56 AM 55.9 °F - 21.0 °F 26% 29.91 in 10.0 mi Calm Calm - N/A   Clear
9:56 AM 64.9 °F - 18.0 °F 16% 29.87 in 10.0 mi Calm Calm - N/A   Clear
10:56 AM 69.1 °F - 16.0 °F 13% 29.85 in 10.0 mi Variable 5.8 mph - N/A   Clear
11:56 AM 71.1 °F - 10.0 °F 9% 29.81 in 10.0 mi WSW 5.8 mph - N/A   Clear
12:56 PM 75.0 °F - 1.9 °F 6% 29.77 in 10.0 mi Variable 3.5 mph - N/A   Clear
1:56 PM 75.9 °F - -0.9 °F 5% 29.73 in 10.0 mi SW 9.2 mph - N/A   Clear
2:56 PM 80.1 °F - -17.0 °F 4% 29.70 in 10.0 mi West 12.7 mph 23.0 mph N/A   Clear
3:56 PM 78.1 °F - -13.0 °F 4% 29.67 in 10.0 mi West 12.7 mph 25.3 mph N/A   Clear
4:56 PM 78.1 °F - -9.0 °F 4% 29.65 in 10.0 mi NW 9.2 mph - N/A   Clear
5:56 PM 73.9 °F - -2.0 °F 5% 29.67 in 10.0 mi NW 15.0 mph 24.2 mph N/A   Clear
6:56 PM 68.0 °F - 1.0 °F 7% 29.67 in 10.0 mi NNW 11.5 mph 21.9 mph N/A   Clear
7:56 PM 61.0 °F - 3.9 °F 10% 29.66 in 10.0 mi North 4.6 mph - N/A   Clear
8:56 PM 60.1 °F - 10.0 °F 14% 29.64 in 10.0 mi Variable 5.8 mph - N/A   Clear
9:56 PM 57.9 °F - 6.1 °F 13% 29.61 in 10.0 mi Variable 3.5 mph - N/A   Clear
10:56 PM 57.0 °F - -2.9 °F 9% 29.55 in 10.0 mi SW 8.1 mph - N/A   Clear
11:56 PM 57.0 °F - 10.9 °F 16% 29.50 in 10.0 mi WSW 11.5 mph 19.6 mph N/A   Scattered Clouds